Location: Big Meadow
(36.7100°N, 118.8650°W)
Time: 16:15:38
(UTC-07:00)

Daily predictions for brighter satellites

Satellite Brightness Start Highest point End
(mag) Time Altitude Azimuth Time Altitude Azimuth Time Altitude Azimuth
Cosmos 883 Rocket 4.5 20:22:15 10° S 20:28:21 79° E 20:34:32 10° N
Cosmos 1538 Rocket 4.0 20:27:35 10° S 20:32:37 59° ESE 20:37:42 10° NNE
Okean 1 3.6 20:29:12 10° SSE 20:33:00 47° E 20:36:49 10° NNE
Cosmos 1455 Rocket 3.8 20:32:16 10° NNE 20:36:15 34° ENE 20:40:13 10° SE
Cosmos 44 4.2 20:32:18 10° NW 20:36:22 40° WSW 20:40:28 10° S
Abrixas 3.0 20:34:00 10° WNW 20:36:38 43° SW 20:39:15 10° SE
Cosmos 1975 3.6 20:33:42 10° NNE 20:37:28 36° E 20:41:13 10° SSE
Cosmos 405 Rocket 4.3 20:35:07 10° SE 20:37:37 17° E 20:40:10 10° NE
Tiangong 2 2.6 20:35:37 10° S 20:37:52 18° SE 20:40:07 10° E
DEBRIS 3.0 20:35:48 10° SSW 20:38:27 56° SE 20:45:15 10° NE
YAOGAN 6 4.1 20:39:57 10° ESE 20:42:31 19° ENE 20:45:05 10° NNE
NOSS 2-2 (E) 3.7 20:39:16 10° S 20:43:01 43° ESE 20:47:09 10° NE
Cosmos 2369 Rocket 2.5 20:37:27 10° NNW 20:43:05 71° WSW 20:48:44 10° SSE
Helios 1B rocket 2.6 20:39:12 10° NNE 20:43:15 52° E 20:47:16 10° S
ISS -1.7 20:42:55 10° SE 20:43:05 10° SE 20:43:05 10° SE
SAR-Lupe-4 4.3 20:40:52 10° SE 20:44:10 37° ENE 20:47:31 10° N
Meteor 1-29 3.3 20:45:15 10° NNE 20:48:29 43° E 20:51:42 10° S
Cosmos 1939 Rocket 3.2 20:45:30 10° SE 20:49:10 43° ENE 20:52:51 10° N
Cosmos 1437 3.3 20:50:05 10° SSE 20:53:05 37° E 20:56:06 10° NNE
Cosmos 1500 3.1 20:51:38 10° N 20:55:24 71° E 20:59:07 10° SSE
COSMOS 2455 3.0 20:49:55 10° NNW 20:55:53 62° ENE 21:01:12 13° SE
Cosmos 1709 Rocket 4.0 20:51:42 10° N 20:58:00 89° W 21:04:11 10° S
OAO 2 Rocket 3.5 20:54:32 10° WSW 20:59:19 51° SSE 21:04:11 10° E
Cosmos 1818 3.5 20:55:04 10° SSW 21:00:29 82° ESE 21:05:57 10° NNE
SAR-Lupe-1 4.3 20:57:51 13° SSE 21:00:56 53° ENE 21:04:27 10° N
Cosmos 1943 Rocket 2.2 20:56:04 10° NNW 21:01:43 87° ENE 21:07:04 11° SSE
CZ-4B DEB 2.7 20:59:52 14° SSE 21:02:16 58° ENE 21:05:13 10° N
USA 186 3.1 20:59:15 10° S 21:02:20 40° W 21:05:23 10° NNW
ERS-1 Rocket 3.7 21:01:29 15° SE 21:05:12 36° ENE 21:09:47 10° N
Meteor 1-12 Rocket 4.4 21:00:05 10° N 21:06:09 88° E 21:12:07 10° S
H-2A R/B 4.0 21:05:03 10° E 21:07:04 12° ENE 21:09:07 10° NE
COSMOS 2406 3.4 21:02:15 10° S 21:07:44 49° ESE 21:13:12 10° NNE
NOSS 3-2 (C) 4.4 21:05:13 10° NW 21:12:49 64° WSW 21:20:50 10° SSE
USA 81 4.0 21:08:19 10° S 21:13:36 82° E 21:18:54 10° N
Cosmos 2112 Rocket 4.5 21:09:19 10° S 21:14:09 39° ESE 21:18:58 10° NE
ARGOS 4.3 21:13:55 17° ESE 21:16:56 28° ENE 21:21:27 10° N
Cosmos 773 Rocket 4.2 21:12:41 10° SSW 21:17:50 72° WNW 21:22:58 10° NNE
Cosmos 1743 2.9 21:14:21 10° N 21:18:10 53° E 21:20:24 22° SSE
SJ-11-01 4.4 21:13:40 10° S 21:18:19 79° WSW 21:23:02 10° NNW
CZ-3A R/B 2.0 21:13:46 10° SSW 21:19:07 27° SE 21:19:43 25° SE
SL-27 R/B 3.3 21:24:26 28° SE 21:25:19 32° ESE 21:28:37 10° NE
NOSS 2-2 (D) 3.6 21:21:48 10° SW 21:25:44 75° WNW 21:30:08 10° NNE
ASTRO E2 3.3 21:24:09 10° WSW 21:27:52 38° S 21:29:07 30° SE
Cosmos 1536 Rocket 4.0 21:24:19 10° SSW 21:28:35 61° W 21:32:53 10° N
USA 245 4.4 21:32:15 17° ENE 21:32:15 17° ENE 21:33:43 10° NNE
SL-08 ROCKET BODY 4.5 21:29:34 10° N 21:35:45 85° W 21:41:05 15° S
Cosmos 2184 Rocket 4.0 21:30:20 10° N 21:36:43 76° E 21:41:15 20° SSE
CENTAUR R/B 3.2 21:29:21 10° NNW 21:37:22 74° ENE 21:42:54 24° SE
Helios 1A 4.4 21:33:36 10° SSW 21:37:28 35° W 21:41:22 10° NNW
Cosmos 2074 Rocket 3.9 21:31:40 10° N 21:37:56 81° E 21:42:33 19° S
Cosmos 1680 Rocket 3.4 21:32:45 10° SSW 21:37:58 80° ESE 21:43:12 10° NNE
Aureole 1 Rocket 2.3 21:36:14 25° S 21:38:03 62° ESE 21:41:08 10° NNE
Cosmos 405 4.0 21:35:01 10° NNE 21:38:13 30° ENE 21:38:31 29° E
Meteor 2-13 Rocket 4.4 21:32:49 10° N 21:38:54 77° E 21:43:05 21° SSE
Resurs 01 Rocket 4.5 21:43:14 10° WSW 21:44:51 12° W 21:46:27 10° WNW
MetOp-B 4.2 21:42:24 28° SSE 21:45:11 65° ENE 21:50:30 10° N
Cosmos 1666 2.5 21:47:18 10° N 21:51:03 87° W 21:52:10 44° S
Meteor 2-9 Rocket 4.1 21:47:13 10° N 21:52:41 70° E 21:55:15 33° SSE
Meteor 2-4 Rocket 3.7 21:49:08 13° S 21:54:06 86° W 21:59:53 10° N
SPOT 5 2.8 21:53:00 41° SE 21:54:08 55° ENE 21:58:22 10° N
SPOT 1/Viking Rocket 4.0 21:56:00 35° ESE 21:57:35 45° ENE 22:02:29 10° N
SL-08 RB Rocket 3.9 21:59:02 43° ESE 22:00:00 53° ENE 22:04:22 10° N
Cosmos 1025 Rocket 2.8 21:59:36 42° S 22:00:59 80° E 22:05:15 10° N
ASTEX 1 3.9 22:02:57 22° SSW 22:06:01 55° W 22:10:51 10° NNW
Cosmos 1833 Rocket 4.3 22:10:08 18° ENE 22:10:08 18° ENE 22:12:35 10° NE
Nadezhda 1 Rocket 4.3 22:05:16 12° SSW 22:11:08 67° W 22:17:31 10° N
Terra 3.0 22:11:45 27° ENE 22:12:08 27° ENE 22:16:08 10° NNE
Tiangong 2 2.3 22:11:12 10° WSW 22:13:18 37° W 22:13:18 37° W
Cosmos 1515 4.3 22:18:34 45° NE 22:18:34 45° NE 22:21:32 10° NNE
GENESIS II 4.2 22:15:47 10° NNW 22:19:37 71° NE 22:19:37 71° NE
Cosmos 2154 Rocket 4.0 22:13:48 10° N 22:20:11 89° E 22:22:44 40° S
Meteor 1-23 Rocket 4.5 22:17:19 21° SSW 22:21:03 65° W 22:26:37 10° N
H-2A R/B 3.2 22:22:16 32° ENE 22:22:16 32° ENE 22:26:15 10° N
Cosmos 1371 Rocket 4.0 22:17:11 10° NNW 22:22:30 66° ENE 22:23:26 55° ESE
SL-8 Rocket 4.5 22:20:15 10° N 22:26:10 43° ENE 22:27:14 40° ESE
Meteor 1-15 Rocket 4.2 22:24:05 10° N 22:29:41 80° W 22:31:13 49° S
Cosmos 1980 Rocket 4.4 22:35:21 10° NNE 22:37:55 13° NE 22:39:36 12° ENE
OAO 2 Rocket 3.3 22:38:58 10° W 22:43:24 67° SW 22:43:24 67° SW
H-2A R/B 2.0 22:45:20 63° SW 22:45:50 68° WSW 22:50:49 10° NNW
Cosmos 2341 Rocket 4.0 22:40:32 10° N 22:46:53 78° W 22:48:37 51° SSW
Cosmos 967 Rocket 4.4 22:46:41 31° SSW 22:49:56 82° WNW 22:56:14 10° NNE
DMSP B5D2-2 4.2 22:49:37 10° N 22:54:55 74° WNW 22:55:46 60° SW
ARGOS 4.4 22:55:25 28° SW 22:57:00 34° W 23:01:53 10° NNW
Cosmos 1959 Rocket 4.5 22:51:12 10° N 22:57:33 65° E 22:58:11 61° ESE
CZ-4 R/B 4.2 22:52:36 10° NNE 22:56:52 57° ENE 22:56:52 57° ENE
Cosmos 1892 Rocket 4.3 22:58:50 45° W 22:59:05 46° W 23:03:22 10° N
IGS 5A 4.2 23:02:30 51° N 23:02:30 51° N 23:05:41 10° NNW
Cosmos 2218 Rocket 3.8 22:58:31 10° N 23:04:41 74° E 23:05:06 71° ESE
USA 267 3.1 22:58:27 10° NE 23:05:00 76° SE 23:06:49 51° SSW
Cosmos 2278 3.6 22:59:58 10° NNW 23:05:42 74° ENE 23:05:47 73° ENE
Cosmos 2082 Rocket 2.2 23:06:38 71° ENE 23:06:38 71° ENE 23:11:53 10° NNE
Cosmos 1624 Rocket 4.3 23:01:39 10° NNW 23:06:50 58° WSW 23:06:55 57° WSW
deb Chang Zheng 4 4.2 23:02:37 10° N 23:06:02 54° N 23:06:02 54° N
Cosmos 2228 3.7 23:04:10 10° NNW 23:07:32 51° NNW 23:07:32 51° NNW
SeaSat 1 4.3 23:09:30 19° ENE 23:09:57 19° NE 23:13:24 10° N
Cosmos 921 Rocket 3.9 23:10:55 10° NNW 23:14:23 49° NW 23:14:23 49° NW
Cosmos 2369 3.7 23:18:12 10° NNW 23:23:40 77° WNW 23:23:40 77° WNW
Cosmos 2056 Rocket 4.4 23:20:32 10° NNW 23:24:59 39° W 23:24:59 39° W
CZ-2C R/B 4.3 23:23:33 10° NE 23:26:29 23° ENE 23:26:29 23° ENE
Nadezhda 3 Rocket 4.2 23:32:43 57° ENE 23:32:43 57° ENE 23:38:30 10° NNE
SL-16 R/B 4.5 23:31:49 10° NNE 23:34:32 13° NE 23:36:00 12° ENE
Cosmos 1697 Rocket 3.0 23:30:40 10° NNW 23:35:40 60° NE 23:35:40 60° NE
CZ-4B R/B 4.0 23:35:14 10° N 23:39:47 55° NW 23:39:47 55° NW
Meteor 2-14 Rocket 4.4 23:40:37 10° N 23:46:23 74° WNW 23:46:23 74° WNW
Terra 3.5 23:50:38 25° WNW 23:50:38 25° WNW 23:53:48 10° NW
Meteor 1-21 4.5 23:51:56 66° NNW 23:51:56 66° NNW 23:57:01 10° N
Cosmos 1833 Rocket 3.3 23:51:46 47° WNW 23:52:04 48° WNW 23:57:31 10° N
ISS -0.3 23:57:34 11° N 23:57:34 11° N 23:58:03 10° N
